www.pogodaiklimat.ru

Погода и климат >> Архив погоды >> Венгрия >> Agard


ПОГОДА в Agard

  • Прогноз погоды в Agard
  • Монитор погоды в Agard
  • Климат города

АРХИВ ПОГОДЫ в Agard

Время (UTC), дата Ветер
(напр.,м/с)
 
Видим.   Явления Облачность Т
(С)
Тd
(С)
f
(%)
Тe
(С)
Тes
(С)
Комфортность P
(гПа)
Po
(гПа)
Тmin
(С)
Tmax
(С)
R
(мм)
R24
(мм)
S
(см)
01 11.10 штиль 0 н/о н/о +9.0 +8.5 97 +8 +8 1025.2 1012.2
02 11.10 штиль 0 н/о н/о +8.7 +8.4 98 +8 +8 1024.8 1011.8
03 11.10 штиль 0 н/о н/о +8.1 +7.8 98 +7 +7 1024.8 1011.7
04 11.10 штиль 0 н/о н/о +8.0 +7.7 98 +7 +7 1024.6 1011.5
05 11.10 штиль 0 н/о н/о +7.3 +7.2 99 +6 +6 1024.9 1011.8
06 11.10 штиль 0 н/о н/о +8.2 +8.1 99 +7 +7 1025.0 1011.9 +7.3
07 11.10 СВ 2 н/о н/о +13.4 +10.4 82 +13 +13 1025.3 1012.5
08 11.10 В 2 н/о н/о +17.1 +10.9 67 +17 +17 1025.3 1012.6
09 11.10 В 2 н/о н/о +19.0 +11.6 62 +20 +20 1025.2 1012.6
10 11.10 В 2 н/о н/о +20.9 +12.1 57 +24 +24 комфорт 1024.8 1012.3
11 11.10 В 1 н/о н/о +22.0 +11.7 52 +24 +24 комфорт 1024.4 1011.9
12 11.10 В 1 н/о н/о +23.2 +11.3 47 +25 +25 комфорт 1023.8 1011.4
13 11.10 В 1 н/о н/о +23.7 +11.1 45 +25 +25 комфорт 1023.5 1011.1
14 11.10 ЮВ 1 н/о н/о +23.6 +10.6 44 +25 +25 комфорт 1023.2 1010.8
15 11.10 В 2 н/о н/о +23.1 +10.2 44 +25 +25 комфорт 1022.9 1010.5
16 11.10 штиль 0 н/о н/о +21.0 +10.2 50 +22 +22 комфорт 1023.0 1010.5
17 11.10 штиль 0 н/о н/о +16.4 +10.9 70 +16 +16 1023.4 1010.7
18 11.10 штиль 0 н/о н/о +14.7 +10.7 77 +14 +14 1023.9 1011.1 +24.0
19 11.10 штиль 0 н/о н/о +13.5 +11.6 88 +13 +13 1024.2 1011.4
20 11.10 штиль 0 н/о н/о +12.5 +11.1 91 +12 +12 1024.9 1012.0
21 11.10 штиль 0 н/о н/о +11.3 +9.9 91 +11 +11 1025.2 1012.3
22 11.10 СВ 1 н/о н/о +10.9 +9.8 93 +10 +10 1025.5 1012.5
23 11.10 штиль 0 н/о н/о +10.5 +9.1 91 +10 +10 1025.9 1012.9
00 12.10 штиль 0 н/о н/о +10.0 +8.6 91 +9 +9 1026.1 1013.1
01 12.10 СВ 1 н/о н/о +10.8 +9.1 89 +10 +10 1026.2 1013.2
02 12.10 СВ 1 н/о н/о +10.4 +9.0 91 +10 +10 1026.0 1013.0
03 12.10 СВ 1 н/о н/о +10.1 +8.9 92 +10 +10 1026.4 1013.4
04 12.10 СВ 1 н/о н/о +10.1 +8.5 90 +10 +10 1026.7 1013.7
05 12.10 В 1 н/о н/о +10.0 +8.6 91 +9 +9 1027.1 1014.1
06 12.10 СВ 2 н/о н/о +10.6 +9.0 90 +9 +9 1027.9 1014.9 +9.7
07 12.10 СВ 1 н/о н/о +12.3 +9.7 84 +12 +12 1028.3 1015.4
08 12.10 С 2 н/о н/о +14.5 +11.5 82 +14 +14 1028.9 1016.1
09 12.10 ЮВ 2 н/о н/о +18.0 +9.9 59 +19 +19 1028.8 1016.1
10 12.10 ЮВ 3 н/о н/о +20.0 +9.6 51 +22 +22 комфорт 1028.7 1016.1
11 12.10 ЮВ 2 н/о н/о +20.9 +9.5 48 +23 +23 комфорт 1028.3 1015.7
12 12.10 ЮВ 3 н/о н/о +21.9 +9.1 44 +23 +23 комфорт 1027.9 1015.4
13 12.10 В 2 н/о н/о +22.6 +9.1 42 +24 +24 комфорт 1027.4 1014.9
14 12.10 В 2 н/о н/о +22.7 +8.8 41 +24 +24 комфорт 1027.3 1014.8
15 12.10 В 1 н/о н/о +22.1 +8.9 43 +23 +23 комфорт 1027.3 1014.8
16 12.10 В 1 н/о н/о +20.3 +8.9 48 +23 +23 комфорт 1027.3 1014.7
17 12.10 В 1 н/о н/о +16.1 +10.0 67 +17 +17 1027.9 1015.1
18 12.10 СВ 1 н/о н/о +14.6 +11.2 80 +15 +15 1028.1 1015.3 +23.0
19 12.10 штиль 0 н/о н/о +12.5 +10.2 86 +12 +12 1028.5 1015.6
20 12.10 штиль 0 н/о н/о +11.9 +10.5 91 +11 +11 1028.9 1015.9
21 12.10 штиль 0 н/о н/о +10.7 +9.8 94 +10 +10 1029.1 1016.1
22 12.10 штиль 0 н/о н/о +9.9 +9.0 94 +9 +9 1029.1 1016.1
23 12.10 штиль 0 н/о н/о +9.3 +8.8 97 +8 +8 1029.1 1016.0
00 13.10 штиль 0 н/о н/о +8.6 +8.2 97 +8 +8 1029.2 1016.1
01 13.10 ЮЗ 1 н/о н/о +8.5 +8.2 98 +8 +8 1029.3 1016.2
02 13.10 штиль 0 н/о н/о +7.6 +7.3 98 +7 +7 1029.3 1016.1
03 13.10 штиль 0 н/о н/о +6.8 +6.5 98 +6 +6 1029.3 1016.1
04 13.10 штиль 0 н/о н/о +6.6 +6.5 99 +5 +5 1029.5 1016.3
05 13.10 ЮЗ 1 н/о н/о +6.6 +6.6 100 +5 +5 1029.5 1016.3
06 13.10 штиль 0 н/о н/о +6.7 +6.7 100 +6 +6 1029.7 1016.5 +6.1
07 13.10 штиль 0 н/о н/о +11.8 +10.7 93 +11 +11 1029.8 1016.8
08 13.10 СВ 2 н/о н/о +14.0 +11.0 82 +13 +13 1029.9 1017.0
09 13.10 СВ 2 н/о н/о +16.3 +10.8 70 +16 +16 1029.7 1016.9
10 13.10 С 2 н/о н/о +18.9 +11.2 61 +20 +20 1029.5 1016.8
11 13.10 ЮВ 1 н/о н/о +21.6 +9.8 47 +23 +23 комфорт 1029.0 1016.5
12 13.10 В 1 н/о н/о +22.1 +9.3 44 +24 +24 комфорт 1028.3 1015.8
13 13.10 штиль 0 н/о н/о +22.6 +9.7 44 +24 +24 комфорт 1027.7 1015.2
14 13.10 штиль 0 н/о н/о +22.4 +10.2 46 +24 +24 комфорт 1027.3 1014.8
15 13.10 В 1 н/о н/о +21.9 +9.1 44 +23 +23 комфорт 1026.8 1014.3
16 13.10 В 1 н/о н/о +19.7 +9.6 52 +22 +22 комфорт 1026.8 1014.2
17 13.10 штиль 0 н/о н/о +14.8 +10.0 73 +15 +15 1027.0 1014.2
18 13.10 штиль 0 н/о н/о +12.7 +10.1 84 +12 +12 1027.0 1014.1 +22.8
19 13.10 штиль 0 н/о н/о +11.7 +10.1 90 +11 +11 1026.8 1013.9
20 13.10 штиль 0 н/о н/о +10.6 +9.7 94 +10 +10 1026.9 1013.9
21 13.10 штиль 0 н/о н/о +10.4 +9.8 96 +10 +10 1026.8 1013.8
22 13.10 штиль 0 н/о н/о +9.5 +8.4 93 +9 +9 1026.6 1013.6
23 13.10 СВ 1 н/о н/о +9.3 +8.5 95 +9 +9 1026.7 1013.7
00 14.10 штиль 0 н/о н/о +8.5 +7.4 93 +8 +8 1026.9 1013.8
01 14.10 штиль 0 н/о н/о +7.8 +7.1 95 +7 +7 1026.7 1013.6
02 14.10 СВ 1 н/о н/о +11.3 +8.0 80 +11 +11 1026.4 1013.4
03 14.10 СВ 1 н/о н/о +9.4 +7.3 87 +9 +9 1026.4 1013.4
04 14.10 СВ 2 н/о н/о +10.4 +7.6 83 +9 +9 1026.4 1013.4
05 14.10 СВ 1 н/о н/о +9.4 +7.0 85 +9 +9 1026.2 1013.2
06 14.10 СВ 1 н/о н/о +9.2 +7.2 87 +9 +9 1026.1 1013.1 +7.8
07 14.10 СВ 1 н/о н/о +11.4 +8.1 80 +11 +11 1026.3 1013.4
08 14.10 СВ 2 н/о н/о +14.1 +9.5 74 +14 +14 1026.2 1013.4
09 14.10 Ю 2 н/о н/о +17.6 +4.2 41 +18 +18 1025.8 1013.1
10 14.10 ЮВ 2 н/о н/о +20.3 +3.1 32 +21 +21 комфорт 1025.6 1013.1
11 14.10 ЮВ 2 н/о н/о +20.8 +3.1 31 +22 +22 комфорт 1025.2 1012.7
12 14.10 В 3
{7}
н/о н/о +21.7 +3.4 30 +22 +22 комфорт 1024.4 1011.9
13 14.10 В 3
{7}
н/о н/о +21.7 +4.7 33 +22 +22 комфорт 1023.8 1011.3
14 14.10 В 3 н/о н/о +21.7 +4.7 33 +22 +22 комфорт 1023.3 1010.8
15 14.10 В 3
{7}
н/о н/о +21.1 +5.1 35 +22 +22 комфорт 1023.0 1010.5
16 14.10 В 2 н/о н/о +19.3 +5.4 40 +20 +20 1023.0 1010.4
17 14.10 В 1 н/о н/о +16.9 +5.5 47 +18 +18 1023.2 1010.5
18 14.10 В 1 н/о н/о +14.4 +5.7 56 +15 +15 1023.4 1010.6 +21.9
19 14.10 В 1 н/о н/о +14.1 +6.2 59 +15 +15 1023.5 1010.7
20 14.10 СВ 1 н/о н/о +12.0 +6.7 70 +12 +12 1023.7 1010.8
21 14.10 штиль 0 н/о н/о +10.1 +7.2 82 +9 +9 1024.1 1011.1
22 14.10 штиль 0 н/о н/о +8.5 +6.0 84 +8 +8 1024.2 1011.1
23 14.10 штиль 0 н/о н/о +8.2 +6.0 86 +7 +7 1024.2 1011.1
00 15.10 В 1 н/о н/о +8.5 +6.1 85 +8 +8 1024.3 1011.2
01 15.10 СВ 1 н/о н/о +8.6 +5.2 79 +8 +8 1024.6 1011.5
02 15.10 СВ 1 н/о н/о +8.9 +5.8 81 +8 +8 1024.3 1011.3
03 15.10 СВ 1 н/о н/о +8.6 +4.8 77 +8 +8 1024.2 1011.2
04 15.10 СВ 1 н/о н/о +8.8 +4.6 75 +8 +8 1024.0 1011.0
05 15.10 СВ 2 н/о н/о +8.9 +4.3 73 +7 +7 1024.1 1011.1
06 15.10 СВ 1 н/о н/о +8.9 +4.1 72 +8 +8 1024.2 1011.2 +7.9
07 15.10 СВ 1 н/о н/о +11.5 +5.6 67 +12 +12 1024.5 1011.6
08 15.10 ЮВ 2 н/о н/о +14.7 +3.8 48 +15 +15 1024.5 1011.7
09 15.10 ЮВ 3 н/о н/о +17.1 +4.4 43 +17 +17 1024.3 1011.6
10 15.10 ЮВ 2
{7}
н/о н/о +18.9 +4.7 39 +20 +20 1024.0 1011.4
11 15.10 ЮВ 2 н/о н/о +20.2 +4.3 35 +21 +21 комфорт 1023.3 1010.8
12 15.10 В 3
{7}
н/о н/о +21.1 +3.3 31 +21 +21 комфорт 1022.5 1010.0
13 15.10 В 3 н/о н/о +21.4 +3.1 30 +21 +21 комфорт 1022.1 1009.6
14 15.10 В 2 н/о н/о +21.4 +3.6 31 +22 +22 комфорт 1022.0 1009.5
15 15.10 В 1 н/о н/о +19.7 +3.4 34 +21 +21 комфорт 1021.9 1009.4
16 15.10 В 1 н/о н/о +16.3 +4.7 46 +17 +17 1021.9 1009.2
17 15.10 В 2 н/о н/о +15.1 +4.2 48 +15 +15 1022.0 1009.3
18 15.10 В 2 н/о н/о +15.7 +2.8 42 +16 +16 1022.2 1009.5 +21.5
19 15.10 В 1 н/о н/о +13.6 +5.5 58 +14 +14 1022.4 1009.6
20 15.10 С 1 н/о н/о +13.0 +8.7 75 +13 +13 1022.5 1009.7
21 15.10 В 1 н/о н/о +13.0 +6.8 66 +13 +13 1022.6 1009.8
22 15.10 штиль 0 н/о н/о +11.2 +3.7 60 +11 +11 1023.1 1010.2
23 15.10 СВ 1 н/о н/о +11.4 +5.3 66 +11 +11 1023.1 1010.2
00 16.10 СВ 1 н/о н/о +9.9 +3.9 66 +10 +10 1023.1 1010.1
01 16.10 штиль 0 н/о н/о +9.4 +4.8 73 +9 +9 1022.9 1009.9
02 16.10 СВ 1 н/о н/о +8.5 +3.9 73 +8 +8 1022.7 1009.7
03 16.10 СВ 1 н/о н/о +8.3 +3.9 74 +8 +8 1022.6 1009.6
04 16.10 СВ 1 н/о н/о +8.0 +4.4 78 +7 +7 1022.8 1009.7
05 16.10 СВ 2 н/о н/о +8.7 +3.9 72 +7 +7 1022.8 1009.8
06 16.10 СВ 2 н/о н/о +8.6 +3.8 72 +7 +7 1023.1 1010.1 +7.4
07 16.10 С 1 н/о н/о +10.9 +5.2 68 +11 +11 1023.5 1010.6
08 16.10 С 1 н/о н/о +13.6 +6.7 63 +14 +14 1023.8 1011.0
09 16.10 ЮВ 2 н/о н/о +16.7 +5.9 49 +17 +17 1023.4 1010.7
10 16.10 В 2 н/о н/о +18.9 +7.0 46 +20 +20 1023.3 1010.7
11 16.10 ЮВ 2 н/о н/о +19.9 +7.3 44 +21 +21 комфорт 1022.8 1010.3
12 16.10 ЮВ 2
{7}
н/о н/о +20.7 +7.0 41 +22 +22 комфорт 1022.3 1009.8
13 16.10 ЮВ 2 н/о н/о +20.7 +7.0 41 +22 +22 комфорт 1022.3 1009.8
14 16.10 В 2 н/о н/о +20.7 +7.0 41 +22 +22 комфорт 1022.0 1009.5
15 16.10 В 1 н/о н/о +20.1 +7.8 45 +22 +22 комфорт 1021.8 1009.3
16 16.10 штиль 0 н/о н/о +18.1 +9.2 56 +18 +18 1022.0 1009.4
17 16.10 штиль 0 н/о н/о +15.8 +11.4 75 +16 +16 1022.3 1009.6
18 16.10 штиль 0 н/о н/о +14.5 +10.5 77 +14 +14 1022.4 1009.6 +20.9
19 16.10 штиль 0 н/о н/о +14.1 +10.5 79 +14 +14 1022.5 1009.7
20 16.10 штиль 0 н/о н/о +13.1 +10.1 82 +13 +13 1022.6 1009.8
21 16.10 штиль 0 н/о н/о +12.8 +10.0 83 +12 +12 1022.6 1009.8
22 16.10 штиль 0 н/о н/о +12.4 +8.5 77 +12 +12 1022.6 1009.7
23 16.10 СВ 1 н/о н/о +12.9 +7.1 68 +13 +13 1022.4 1009.6
00 17.10 СВ 1 н/о н/о +12.3 +6.4 67 +12 +12 1022.3 1009.4
01 17.10 СВ 1 н/о н/о +12.2 +6.3 67 +12 +12 1022.3 1009.4
02 17.10 СВ 1 н/о н/о +12.0 +5.9 66 +12 +12 1022.2 1009.3
03 17.10 СВ 1 н/о н/о +11.5 +5.8 68 +12 +12 1022.1 1009.2
04 17.10 СВ 2 н/о н/о +11.1 +5.6 69 +10 +10 1022.1 1009.2
05 17.10 СВ 1 н/о н/о +10.4 +5.0 69 +10 +10 1022.2 1009.3
06 17.10 СВ 2 н/о н/о +10.6 +5.6 71 +9 +9 1022.6 1009.7 +10.2
07 17.10 СВ 1 н/о н/о +12.0 +5.2 63 +12 +12 1022.7 1009.8
08 17.10 СВ 1 н/о н/о +13.3 +5.9 61 +14 +14 1022.8 1010.0
09 17.10 СВ 2 н/о н/о +16.1 +7.3 56 +16 +16 1022.5 1009.8
10 17.10 В 2 н/о н/о +19.3 +5.7 41 +20 +20 1022.1 1009.6
11 17.10 В 2 н/о н/о +21.8 +5.7 35 +22 +22 комфорт 1021.2 1008.8
12 17.10 В 3 н/о н/о +22.5 +5.0 32 +23 +23 комфорт 1020.7 1008.3
13 17.10 В 2 н/о н/о +22.0 +5.0 33 +22 +22 комфорт 1020.3 1007.9
14 17.10 ЮВ 2 н/о н/о +22.5 +5.0 32 +23 +23 комфорт 1020.1 1007.7
15 17.10 В 1 н/о н/о +22.0 +5.0 33 +22 +22 комфорт 1019.8 1007.4
16 17.10 В 1 н/о н/о +19.4 +6.5 43 +21 +21 комфорт 1019.7 1007.2
17 17.10 штиль 0 н/о н/о +16.1 +9.1 63 +16 +16 1020.1 1007.4
18 17.10 В 2 н/о н/о +17.5 +6.1 47 +18 +18 1019.9 1007.3 +22.8
19 17.10 С 1 н/о н/о +14.9 +10.1 73 +15 +15 1020.2 1007.5
20 17.10 штиль 0 н/о н/о +12.8 +7.5 70 +12 +12 1020.5 1007.7
21 17.10 СВ 1 н/о н/о +11.9 +7.0 72 +12 +12 1020.7 1007.8
22 17.10 штиль 0 н/о н/о +10.6 +6.0 73 +10 +10 1020.5 1007.6
23 17.10 штиль 0 н/о н/о +10.3 +7.2 81 +10 +10 1020.5 1007.6

 

Местоположение метеостанции Agard (Венгрия): широта 47.18 долгота 18.62 высота над уровнем моря 106 м.

В архиве по умолчанию представлена погода в Agard за последнюю неделю. Архивные данные за месяц целиком и за предыдущие месяцы, начиная с января 2011 года, Вы можете получить, выбрав интересующий диапазон дат из раскрывающегося списка и нажав кнопку "Ввод!".


*Определитесь, кто Вы:
робот инопланетянин человек

Внимание! Время в таблицах - всемирное. Для получения местного времени необходимо прибавить поправку, которая в Agard равна 1 ч.

Смотрите также архив погоды в соседних городах и на ближайших метеорологических станциях:

Погода в Budapest (Венгрия) (51 км)
Погода в Siofok (Венгрия) (52 км)
Погода в Tata (Венгрия) (57 км)
Погода в Veszprem (Венгрия) (61 км)
Погода в Tat (Венгрия) (63 км)
Погода в Paks (Венгрия) (69 км)
Погода в Hurbanovo (Словакия) (83 км)
Погода в Kecskemet (Венгрия) (90 км)
Погода в Gyor (Венгрия) (93 км)
Погода в Kaposvar (Венгрия) (107 км)

Пояснения к столбцам:

Ветер - указаны скорость ветра в м/с - средняя за 10 мин, порывы в срок и между сроками (в фигурных скобках) и направление, откуда дует ветер: С - северный, СВ - северо-восточный, В - восточный, ЮВ - юго-восточный, Ю - южный, ЮЗ - юго-западный, З - западный, СЗ - северо-западный.
Видимость - горизонтальная дальность видимости в метрах или километрах. При видимости от 1 до 10 км при отсутствии осадков обычно наблюдается дымка, при ухудшении видимости до 1 км и менее - туман. В сухую погоду видимость может ухудшаться дымом, пылью или мглою.
Явления - указаны атмосферные явления, наблюдавшиеся в срок или в последний час перед сроком; фигурными скобками обозначены явления, наблюдавшиеся между сроками (за 1-3 часа до срока); квадратными скобками обозначены град или гололедные отложения с указанием их диаметра в мм.
Облачность - указаны через наклонную черту общая и нижняя облачность в баллах и высота нижней границы облаков в метрах; квадратными скобками обозначены формы облаков: Ci - перистые, Cs - перисто-слоистые, Cc - перисто-кучевые, Ac - высококучевые, As - высокослоистые, Sc - слоисто-кучевые, Ns - слоисто-дождевые, Cu - кучевые, Cb - кучево-дождевые. Подробнее классификацию облаков см. в Атласе облаков (PDF).
T - Температура воздуха - температура, измеренная на высоте 2 м над землей.
Td - Температура точки росы - температура, при понижении до которой содержащийся в воздухе водяной пар достигнет насыщения.
f - Относительная влажность воздуха - влажноcть воздуха, измеренная на высоте 2 м над землей.
Te - Эффективная температура - температура, которую ощущает одетый по сезону человек в тени. Характеристика душности погоды. При расчете учитывается влияние влажности воздуха и скорости ветра на теплоощущения человека.
Tes - Эффективная температура на солнце - температура, которую ощущает человек, с поправкой на солнечный нагрев. Характеристика знойности погоды. Зависит от высоты солнца над горизонтом, облачности и скорости ветра. Ночью, в пасмурную погоду, а также при ветре 12 м/с и более поправка равна нулю.
P - Атмосферное давление - приведенное к уровню моря атмосферное давление.
Po - Атмосферное давление - измеренное на уровне метеостанции атмосферное давление.
Tmin - Минимальная температура - минимум температуры воздуха на высоте 2 м над землей.
Tmax - Максимальная температура - максимум температуры воздуха на высоте 2 м над землей.
R - Количество осадков - Количество выпавших осадков за период времени, мм. При наведении курсора мыши на число - период времени, за который выпало указанное количество осадков.
R24 - Количество осадков - Количество выпавших осадков за 24 часа, мм.
S - Снежный покров - Высота снежного покрова, см. При наведении курсора мыши на число - состояние снежного покрова и степень покрытия местности в баллах.